Game: Super Castlevania IV
Bid: Upgrade to Hard Mode Total: $12,536.82 Goal: $12,500.00

Description
Upgrades the difficulty level of the Super Castlevania IV run to Hard.
NameAscDsc Time ReceivedAscDsc AmountAscDsc
Ren 2020-01-07T15:27:38.910058-06:00 $58.00
Kineticka 2020-01-07T15:24:57.471329-06:00 $10.00
Vuzzar 2020-01-07T15:23:19.079720-06:00 $25.00
GoldenDrachi 2020-01-07T15:20:26.287430-06:00 $25.00
Kronkleberry 2020-01-07T15:15:44.445681-06:00 $25.00
(Anonymous) 2020-01-07T15:14:33.429668-06:00 $25.00
SushiElemental 2020-01-07T15:14:31.478147-06:00 $10.00
James Halliday 2020-01-07T15:14:25.620873-06:00 $25.00
MarcusSparchs 2020-01-07T15:12:27.559894-06:00 $5.00
bard621 2020-01-07T15:10:58.468112-06:00 $5.00
KingChalizard 2020-01-07T15:08:32.731811-06:00 $25.00
Evad 2020-01-07T15:07:48.716620-06:00 $25.00
Jrock 2020-01-07T15:07:13.396776-06:00 $10.00
(Anonymous) 2020-01-07T15:06:45.346262-06:00 $100.00
(Anonymous) 2020-01-07T15:06:13.620566-06:00 $10.00
(Anonymous) 2020-01-07T15:05:58.005008-06:00 $200.00
Shuffles 2020-01-07T15:04:33.092353-06:00 $50.00
3shakebreak 2020-01-07T15:04:22.293305-06:00 $25.00
CoreBard 2020-01-07T15:03:33.064824-06:00 $25.00
Dashnir 2020-01-07T15:03:28.835418-06:00 $25.00
coolhandskywalker 2020-01-07T15:01:52.615224-06:00 $15.00
kat 2020-01-07T15:00:37.535451-06:00 $10.00
Lynxara 2020-01-07T15:00:14.940917-06:00 $5.00
Aiesnow 2020-01-07T15:00:14.163447-06:00 $100.00
WEDGE1029 2020-01-07T14:57:55.898436-06:00 $15.00
elVaagoQro 2020-01-07T14:54:25.905480-06:00 $5.00
Piroko13 2020-01-07T14:46:40.953811-06:00 $10.00
Seikaria 2020-01-07T14:42:42.940888-06:00 $25.00
Nathan Collins 2020-01-07T14:41:54.595394-06:00 $25.00
oronena 2020-01-07T14:38:26.047212-06:00 $25.00
(Anonymous) 2020-01-07T14:37:56.432069-06:00 $7.00
MikePoreil 2020-01-07T14:36:39.243450-06:00 $25.00
(Anonymous) 2020-01-07T14:35:33.402215-06:00 $10.00
svencmm 2020-01-07T14:34:28.415906-06:00 $10.00
(Anonymous) 2020-01-07T14:31:54.656160-06:00 $25.00
Gerbhof 2020-01-07T14:31:02.273344-06:00 $250.00
Zenarion 2020-01-07T14:30:20.787212-06:00 $25.00
Harper 2020-01-07T14:29:41.245464-06:00 $5.00
Spookyjonathan 2020-01-07T14:29:35.140138-06:00 $25.00
(Anonymous) 2020-01-07T14:29:01.042863-06:00 $25.00
RealDealDiPirro 2020-01-07T14:27:56.530068-06:00 $50.00
(Anonymous) 2020-01-07T14:25:58.720485-06:00 $25.00
SkyguyLP 2020-01-07T14:22:45.372108-06:00 $25.00
boni 2020-01-07T14:21:33.705835-06:00 $50.00
Romek B 2020-01-07T14:21:11.602460-06:00 $50.00
Fern 2020-01-07T14:14:27.509270-06:00 $50.00
Nirahil 2020-01-07T14:06:49.189799-06:00 $20.00
DynamicEntry! 2020-01-07T14:04:12.959729-06:00 $10.00
Steve L 2020-01-07T14:03:09.286983-06:00 $20.00
(Anonymous) 2020-01-07T14:03:01.554072-06:00 $50.00

|< >|

Back to Bid Index

Back to Main Index

Running on Django with Python
Python code by UraniumAnchor, SMK, and jdeng
CSS by Cool Matty